User: anonymous
Location: Oshawa
(43.9000°N, 78.8670°W)
Time: 17:15:11
(UTC-04:00)
Language:

Altair - Orbit

View from above orbital plane
View from above orbital plane
View from above satellite
View from above satellite

Ground track
Ground track

The orbit data is extracted from the following two-line orbital elements,

1 00050U 60009B   14210.30343405 -.00000051  00000-0  33807-3 0   802
2 00050 047.2319 314.4996 0113203 037.8758 322.9930 12.20082656408155
Epoch (UTC): 29 July 2014 07:16:56
Eccentricity: 0.0113203
inclination: 47.2319°
perigee height: 1502 km
apogee height: 1682 km
right ascension of ascending node: 314.4996°
argument of perigee: 37.8758°
revolutions per day: 12.20082656
mean anomaly at epoch: 322.9930°
orbit number at epoch: 40815

The dashed part of the orbit path shows where the satellite is in the earth's shadow,  

DLR